STARLINK-32955, 63117

Orbit data source: Space-Track

STARLINK-32955, 63117 is a payload satellite owned by SpaceX/Seattle (US) in LEO that was launched on Thu, 27 Feb 2025 UTC via an FALCON 9 launch vehicle from the Air Force Eastern Test Range (AFETR). Payload-class satellites include a variety of spacecraft equipped with specific instruments for various scientific and technological missions. These include communications satellites like Starlink; space stations such as the ISS; scientific satellites like the Hubble; Earth observation satellites from companies like Planet Labs, Umbra, and HawkEye 360; GPS; miniature CubeSats for education and research; and military/defense satellites.

Loading next visibility...
Identifier
63117, 2025-039P
Orbit
LEO
Last TLE update
8 hours ago
Origin
Manufacturer
SpaceX/Seattle
Mission
Operational Commercial Communications
Bus & Motor
STARLINK V2M, Unknown motor
Mass
730 kg wet, ~700 kg dry
Launch date (UTC)
2025-02-27 (4 months ago)
Launch vehicle
FALCON 9
Launch site
Air Force Eastern Test Range (AFETR)
Object type
Payload
Rocket body
Debris
Shape & HBR
Box + 2 Pan, 29 m
Radar Cross Section
33.884 m², Large (>1 m²)

Expand to show TLE details & history

TLE from 8 hours ago
0 STARLINK-32955
1 63117U 25039P   25189.03836420  .00014684  00000-0  54186-3 0  9998
2 63117  42.9996 314.1760 0003828 263.6762  96.3654 15.27589605 21378
Epoch: 2025-07-08T00:55Z
TLE epoch observation values (Epoch: 2025-07-08T00:55:14.666Z)
Latitude
-0.00001°
Longitude
14.12579°
Altitude
483.088 km
Speed
7.626 km/s
True Right ascension
20h 56m 42s
True Declination
0° 00' 00"
Sunlit
Object was in full shadow at epoch
Visualization orbit readout
Latitude
-30.24506°
Longitude
-26.12196°
Altitude
489.313 km
Speed
7.622 km/s
Apparent Right ascension
14h 33m 26s
Apparent Declination
-65° 06' 60"
Sunlit
Object is in full shadow
Visualization observer readout
Local Sidereal Time
20:39:22
Azimuth
211.411° SW
Elevation
-36.189°
Doppler factor
1
Orbital elements
Apogee altitude
487.593 km
Perigee altitude
482.338 km
Semi-major axis
6,863.103 km
Eccentricity
0.00038
Inclination
42.9996°
RAAN
314.176°
Arg. of periapsis
263.6762°
True anomaly
Unknown
Mean anomaly
96.3654°
Eccentric anomaly
Unknown
Mean motion
3.81735 °/min
Orbital period
94.31 mins
BSTAR
0.00054186
Loading maneuver chart data...
Loading SW <> Apogee altitude chart data...
Loading historical data...
Loading historical data...
Loading historical data...
Loading historical data...
Loading historical data...
Loading historical data...
Loading historical data...

STARLINK-32955 Visibility forecast

Observer location: undefined°, undefined°

Span
Click to sort rows by Start time (UTC) header in descending order
Start Az.
Max El. time (UTC)
Max El. Az.
Max El.
End time (UTC)
End Az.
5 mins2025-07-08 12:08:38.123Z221.697° SW2025-07-08 12:10:38.123Z153.075° SSE38.618°2025-07-08 12:13:38.123Z79.761° E
5 mins2025-07-08 13:47:38.123Z280.236° WNW2025-07-08 13:49:38.123Z355.441° N40.302°2025-07-08 13:52:38.123Z69.382° E
5 mins2025-07-08 15:26:38.123Z295.589° NW2025-07-08 15:28:38.123Z354.391° N40.455°2025-07-08 15:31:38.123Z87.091° E
5 mins2025-07-08 17:05:38.123Z272.91° WNW2025-07-08 17:07:38.123Z213.94° SW37.273°2025-07-08 17:10:38.123Z134.204° SE
|